GAOFEN-8

Last updated on Sun Mar 15 2026 00:02:36 GMT+0000 (Coordinated Universal Time)

1 40701U 15030A 26073.61300536 .00030856 00000+0 70761-3 0 9998 2 40701 97.6939 261.5285 0009714 170.2608 189.8829 15.42642578596853
UTC large
Height (km)
Speed (km/s)
/
Latitude / Longitude
Inclination (degrees)
Orbital Period (minutes)
Azimuth
Elevation
Range (km)
Doppler Factor

Next 0 passes for location: London (51.5072 / 0.1276)

Sorry there are no passes over London.